Change the Weather History Date:

Saturday, August 24, 2013

  Actual Average Record
Temperature  
Mean Temperature 75 °F -  
Max Temperature 84 °F 87 °F 102 °F (2002)
Min Temperature 64 °F 65 °F 47 °F (1985)
Cooling Degree Days 10    
Growing Degree Days 25 (Base 50)    
Moisture  
Dew Point 62 °F    
Average Humidity 72    
Maximum Humidity 93    
Minimum Humidity 42    
Precipitation  
Precipitation 0.01 in - - ()
Sea Level Pressure  
Sea Level Pressure 30.18 in    
Wind  
Wind Speed 10 mph (NNE)    
Max Wind Speed 15 mph    
Max Gust Speed 21 mph    
Visibility 10 miles    
Events      
Averages and records for this station are not official NWS values.
T = Trace of Precipitation, MM = Missing Value Source: NWS Daily Summary

Daily Weather History Graph

Daily Weather History Graph

Search for Another Location

Airport or City:

Trip Planner

Search our weather history database for the weather conditions in past years. The results will help you decide how hot, cold, wet, or windy it might be!

Date:

Astronomy

Aug. 24, 2013 Rise Set
Actual Time 6:37 AM EDT 7:49 PM EDT
Civil Twilight 6:10 AM EDT 8:16 PM EDT
Nautical Twilight 5:39 AM EDT 8:47 PM EDT
Astronomical Twilight 5:06 AM EDT 9:20 PM EDT
Moon 9:53 PM EDT (8/24) 10:25 AM EDT (8/24)
Length of Visible Light 14h 05m
Length of Day
13h 12m
Waning Gibbous, 84% of the Moon is Illuminated
Aug 24
Waning Gibbous
Aug 28
Last Quarter
Sep 5
New
Sep 12
First Quarter
Sep 19
Full

Hourly Weather History & Observations

Time (EDT) Temp. Heat Index Dew Point Humidity Pressure Visibility Wind Dir Wind Speed Gust Speed Precip Events Conditions
12:02 AM 73.4 °F - 69.8 °F 88% 30.05 in 10.0 mi North 8.1 mph - N/A   Overcast
12:53 AM 70.0 °F - 68.0 °F 93% 30.08 in 10.0 mi North 12.7 mph - 0.00 in   Overcast
1:20 AM 69.8 °F - 64.4 °F 83% 30.09 in 10.0 mi NNE 13.8 mph 20.7 mph N/A   Overcast
1:53 AM 68.0 °F - 64.0 °F 87% 30.09 in 10.0 mi NNE 11.5 mph - N/A   Overcast
2:38 AM 68.0 °F - 62.6 °F 83% 30.10 in 10.0 mi North 10.4 mph - N/A   Overcast
2:53 AM 68.0 °F - 63.0 °F 84% 30.09 in 10.0 mi NNE 12.7 mph - N/A   Mostly Cloudy
3:53 AM 68.0 °F - 62.1 °F 81% 30.10 in 10.0 mi North 11.5 mph - N/A   Overcast
4:53 AM 66.9 °F - 63.0 °F 87% 30.11 in 10.0 mi North 8.1 mph - 0.01 in   Overcast
5:53 AM 66.0 °F - 63.0 °F 90% 30.14 in 10.0 mi North 6.9 mph - N/A   Partly Cloudy
6:42 AM 66.2 °F - 62.6 °F 88% 30.17 in 9.0 mi North 8.1 mph - N/A   Mostly Cloudy
6:53 AM 66.0 °F - 63.0 °F 90% 30.17 in 9.0 mi North 8.1 mph - N/A   Mostly Cloudy
7:53 AM 66.9 °F - 63.0 °F 87% 30.19 in 10.0 mi NNE 11.5 mph - N/A   Mostly Cloudy
8:53 AM 70.0 °F - 62.1 °F 76% 30.19 in 10.0 mi North 9.2 mph - N/A   Clear
9:53 AM 75.0 °F - 63.0 °F 66% 30.21 in 10.0 mi North 8.1 mph - N/A   Clear
10:53 AM 78.1 °F - 63.0 °F 60% 30.22 in 10.0 mi NNE 11.5 mph - N/A   Clear
11:53 AM 80.1 °F 81.2 °F 62.1 °F 54% 30.23 in 10.0 mi ENE 10.4 mph 16.1 mph N/A   Clear
12:53 PM 82.0 °F 82.1 °F 59.0 °F 45% 30.23 in 10.0 mi NNE 15.0 mph 19.6 mph N/A   Clear
1:53 PM 82.9 °F 82.6 °F 57.9 °F 42% 30.23 in 10.0 mi NNE 13.8 mph 20.7 mph N/A   Scattered Clouds
2:53 PM 82.9 °F 82.8 °F 59.0 °F 44% 30.22 in 10.0 mi NE 8.1 mph 18.4 mph N/A   Partly Cloudy
3:53 PM 84.0 °F 84.0 °F 60.1 °F 44% 30.21 in 10.0 mi North 11.5 mph - N/A   Scattered Clouds
4:53 PM 82.9 °F 82.8 °F 59.0 °F 44% 30.22 in 10.0 mi NE 8.1 mph - N/A   Clear
5:53 PM 82.9 °F 83.2 °F 60.1 °F 46% 30.22 in 10.0 mi NNE 9.2 mph - N/A   Clear
6:53 PM 77.0 °F - 62.1 °F 60% 30.22 in 10.0 mi Variable 5.8 mph - N/A   Partly Cloudy
7:53 PM 73.0 °F - 63.0 °F 71% 30.24 in 10.0 mi ENE 3.5 mph - N/A   Clear
8:53 PM 68.0 °F - 63.0 °F 84% 30.26 in 10.0 mi Calm Calm - N/A   Clear
9:53 PM 70.0 °F - 63.0 °F 78% 30.28 in 10.0 mi NE 3.5 mph - N/A   Clear
10:53 PM 68.0 °F - 62.1 °F 81% 30.30 in 10.0 mi NE 3.5 mph - N/A   Clear
11:53 PM 64.9 °F - 61.0 °F 87% 30.31 in 10.0 mi NE 3.5 mph - N/A   Clear